MOLNIYA 1-32

Last updated on Aug. 6, 2020, 5:30 a.m. UTC

1 08601U 76006A   20218.60897037  .00001247  00000-0  88487-3 0  9999
2 08601  62.7402  42.0852 7415429 279.5673  11.0652  1.99945591 39098
UTC
Height (km)
Latitude
Longitude
Inclination
Orbital Period
UTC large
Height (km)
Speed (km/s)
/
Latitude / Longitude
Inclination (degrees)
Orbital Period (minutes)
Azimuth
Elevation
Range (km)
Doppler Factor
iOS Compass Heading
iOS Angle

Next 30 passes for location: Hong Kong

Rise time Rise Azimuth (degrees) Set time Set Azimuth (degrees) Duration Max altitude (degrees)

No matching passes for this satellites